Location: Huntsville
(41.2590°N, 111.7678°W)
Time: 01:36:39
(UTC+00:00)

ISS - Visible Passes

Search period start: 02 December 2021 00:00
Search period end: 12 December 2021 00:00
Orbit: 417 x 423 km, 51.6° (Epoch: 01 December)

Date Brightness Start Highest point End Pass type
(mag) Time Alt. Az. Time Alt. Az. Time Alt. Az.
02 Dec -1.9 01:30:09 10° NNW 01:32:21 19° N 01:32:21 19° N visible
03 Dec -1.8 00:43:01 10° NNW 00:45:18 17° NNE 00:47:13 11° NE visible
03 Dec -1.1 02:19:26 10° NW 02:20:13 16° NW 02:20:13 16° NW visible
04 Dec -2.8 01:32:20 10° NW 01:35:10 32° NNE 01:35:10 32° NNE visible
05 Dec -2.4 00:45:14 10° NW 00:48:06 25° NNE 00:50:15 14° ENE visible
05 Dec -1.4 02:21:49 10° WNW 02:23:16 23° WNW 02:23:16 23° WNW visible
06 Dec -3.9 01:34:34 10° NW 01:37:58 81° NE 01:38:34 57° ESE visible
07 Dec -3.5 00:47:23 10° NW 00:50:42 50° NNE 00:54:00 10° ESE visible
07 Dec -1.2 02:24:44 10° W 02:27:11 20° SW 02:27:11 20° SW visible
08 Dec -2.1 01:37:06 10° WNW 01:40:12 33° SW 01:43:09 11° SSE visible
09 Dec -3.1 00:49:41 10° WNW 00:53:02 58° SW 00:56:22 10° SE visible
10 Dec -0.4 01:40:57 10° WSW 01:42:10 12° SW 01:43:23 10° SSW visible
11 Dec -0.7 00:52:35 10° W 00:55:06 19° SW 00:57:36 10° S visible
